Greenville, AL

7:42 PM CDT on April 22, 2018 (GMT -0500)
Greenville Municipal

Weather History for KPRN - May, 2013

Change the Weather History Date:

Wednesday, May 1, 2013

  Actual Average Record
Temperature  
Mean Temperature 66 °F -  
Max Temperature 69 °F 81 °F 93 °F (1987)
Min Temperature 64 °F 56 °F 43 °F (1988)
Cooling Degree Days 2    
Growing Degree Days 16 (Base 50)    
Moisture  
Dew Point 62 °F    
Average Humidity 88    
Maximum Humidity 94    
Minimum Humidity 78    
Precipitation  
Precipitation 0.51 in - - ()
Sea Level Pressure  
Sea Level Pressure 30.01 in    
Wind  
Wind Speed 7 mph (ENE)    
Max Wind Speed 14 mph    
Max Gust Speed 23 mph    
Visibility 8 miles    
Events Rain    
Averages and records for this station are not official NWS values.
T = Trace of Precipitation, MM = Missing Value Source: NWS Daily Summary

Daily Weather History Graph

Daily Weather History Graph

Search for Another Location

Airport or City:

Astronomy

May. 01, 2013 Rise Set
Actual Time 6:00 AM CDT 7:26 PM CDT
Civil Twilight 5:34 AM CDT 7:52 PM CDT
Nautical Twilight 5:03 AM CDT 8:23 PM CDT
Astronomical Twilight 4:31 AM CDT 8:56 PM CDT
Moon 12:35 AM CDT (5/1) 11:38 AM CDT (5/1)
Length of Visible Light 14h 18m
Length of Day
13h 26m
Waning Gibbous, 59% of the Moon is Illuminated
May 1
Waning Gibbous
May 2
Last Quarter
May 9
New
May 17
First Quarter
May 24
Full

Hourly Weather History & Observations

Time (CDT) Temp. Dew Point Humidity Pressure Visibility Wind Dir Wind Speed Gust Speed Precip Events Conditions
12:56 AM 66.9 °F 63.0 °F 87% 29.96 in 10.0 mi NE 4.6 mph - N/A   Clear
1:56 AM 66.9 °F 62.1 °F 84% 29.95 in 10.0 mi East 5.8 mph - N/A   Clear
2:56 AM 66.0 °F 61.0 °F 84% 29.94 in 10.0 mi East 6.9 mph - N/A   Clear
3:56 AM 66.9 °F 60.1 °F 79% 29.93 in 10.0 mi East 6.9 mph - N/A   Clear
4:56 AM 66.9 °F 61.0 °F 81% 29.95 in 10.0 mi East 8.1 mph - N/A   Scattered Clouds
5:56 AM 66.9 °F 61.0 °F 81% 29.97 in 10.0 mi ESE 6.9 mph - N/A   Overcast
6:56 AM 66.0 °F 62.1 °F 87% 30.00 in 10.0 mi East 6.9 mph - 0.00 in Rain Light Rain
7:56 AM 64.9 °F 63.0 °F 93% 30.02 in 4.0 mi ESE 4.6 mph - 0.07 in Rain Rain
8:18 AM 64.4 °F 62.6 °F 94% 30.03 in 2.5 mi East 5.8 mph - 0.06 in Rain Rain
8:27 AM 64.4 °F 62.6 °F 94% 30.03 in 4.0 mi East 6.9 mph - 0.08 in Rain Rain
8:56 AM 64.9 °F 63.0 °F 93% 30.02 in 4.0 mi East 5.8 mph - 0.13 in Rain Rain
9:43 AM 64.4 °F 62.6 °F 94% 30.04 in 2.0 mi East 3.5 mph - 0.13 in Rain Heavy Rain
9:56 AM 64.9 °F 63.0 °F 93% 30.03 in 3.0 mi Calm Calm - 0.16 in Rain Rain
10:19 AM 66.2 °F 62.6 °F 88% 30.05 in 2.5 mi ENE 6.9 mph - 0.07 in Rain Light Rain
10:26 AM 66.2 °F 62.6 °F 88% 30.05 in 6.0 mi ENE 8.1 mph - 0.07 in Rain Light Rain
10:56 AM 66.0 °F 63.0 °F 90% 30.04 in 7.0 mi ENE 6.9 mph - 0.08 in Rain Light Rain
11:56 AM 66.0 °F 63.0 °F 90% 30.05 in 8.0 mi East 10.4 mph - 0.02 in Rain Light Rain
12:56 PM 66.0 °F 63.0 °F 90% 30.03 in 10.0 mi ENE 11.5 mph 17.3 mph 0.00 in Rain Light Rain
1:29 PM 66.2 °F 62.6 °F 88% 30.03 in 10.0 mi ENE 9.2 mph 18.4 mph 0.00 in   Overcast
1:56 PM 66.9 °F 63.0 °F 87% 30.01 in 10.0 mi ENE 10.4 mph 18.4 mph 0.00 in   Overcast
2:56 PM 66.9 °F 63.0 °F 87% 30.01 in 10.0 mi ENE 9.2 mph - 0.00 in   Overcast
3:56 PM 66.9 °F 64.0 °F 90% 29.99 in 10.0 mi East 9.2 mph - 0.02 in   Overcast
4:56 PM 68.0 °F 63.0 °F 84% 29.98 in 10.0 mi East 10.4 mph - 0.00 in Rain Light Rain
5:56 PM 66.9 °F 64.0 °F 90% 29.98 in 10.0 mi ENE 4.6 mph - 0.01 in Rain Light Rain
6:56 PM 69.1 °F 62.1 °F 78% 30.00 in 10.0 mi East 8.1 mph - 0.01 in   Overcast
7:25 PM 66.2 °F 62.6 °F 88% 30.01 in 10.0 mi ENE 8.1 mph - N/A   Overcast
7:33 PM 66.2 °F 62.6 °F 88% 30.01 in 10.0 mi ENE 10.4 mph - N/A   Overcast
7:56 PM 66.0 °F 62.1 °F 87% 30.01 in 10.0 mi ENE 6.9 mph - 0.00 in Rain Light Rain
8:14 PM 66.2 °F 62.6 °F 88% 30.03 in 10.0 mi ENE 5.8 mph - 0.01 in Rain Light Rain
8:31 PM 66.2 °F 62.6 °F 88% 30.03 in 10.0 mi ENE 8.1 mph - 0.01 in Rain Light Rain
8:56 PM 64.9 °F 62.1 °F 90% 30.03 in 10.0 mi ENE 8.1 mph - 0.01 in   Overcast
9:56 PM 64.9 °F 61.0 °F 87% 30.02 in 10.0 mi ENE 11.5 mph - 0.00 in   Overcast
10:13 PM 64.4 °F 60.8 °F 88% 30.03 in 10.0 mi East 11.5 mph 19.6 mph N/A   Overcast
10:32 PM 64.4 °F 60.8 °F 88% 30.02 in 10.0 mi ENE 13.8 mph 20.7 mph N/A   Mostly Cloudy
10:56 PM 64.9 °F 60.1 °F 84% 30.02 in 10.0 mi East 12.7 mph 23.0 mph N/A   Scattered Clouds
11:56 PM 64.9 °F 59.0 °F 81% 30.02 in 10.0 mi East 13.8 mph 19.6 mph N/A   Overcast